OBJECT AK, 61768

Orbit data source: Space-Track

You're viewing an uncataloged RSO

Recently launched and/or uncataloged RSOs may have evolving metadata. Metadata may include the following, but is not limited to: Owner, Manufacturer, Bus, Motor, and Mission.

OBJECT AK, 61768 is a satellite in SSO that was launched on Mon, 04 Nov 2024 UTC launched from the Vostochny Cosmodrome (VOSTO). Unknown objects in Earth's orbit typically refer to objects detected orbiting the Earth but have not yet been identified or cataloged. These objects could be anything from previously untracked satellites, spent rocket stages, debris from satellite collisions, or even natural meteoroids temporarily captured by Earth's gravity.

Loading next visibility...
Identifier
61768, 2024-199AK
Orbit
SSO
Country
Flag of TBDTBD
Related business
Manufacturer
Lavochkin
Mission
Operational spacecraft
Bus & Motor
Unknown
Mass
Unknown
Launch date (UTC)
2024-11-04 (2 years ago)
Launch vehicle
Unknown
Launch site
Vostochny Cosmodrome (VOSTO)
Object type
Unknown
Shape & HBR
Unknown shape, 0.1 m
Radar Cross Section
Medium (>0.1 m² and <1 m²)

Expand to show TLE details & history
Last TLE update: 5 hours ago

TLE from 5 hours ago
0 OBJECT AK
1 61768U 24199AK  26264.56125937  .00017614  00000-0  27692-3 0  9999
2 61768  97.2794 140.6916 0003070 315.5433  44.5574 15.53680481149283
Epoch: 2026-09-21T13:28Z
TLE epoch observation values (Epoch: 2026-09-21T13:28:12.809Z)
Latitude
-0.00002°
Longitude
-61.80109°
Altitude
407.646 km
Speed
7.667 km/s
True Right ascension
09h 22m 45s
True Declination
0° 00' 00"
Sunlit
Object was in daylight at epoch
Visualization orbit readout
Latitude
Unknown
Longitude
Unknown
Altitude
Unknown
Speed
Unknown
Apparent Right ascension
Unknown
Apparent Declination
Unknown
Sunlit
N/A
Visualization observer readout
Local Sidereal Time
12:00:03
Azimuth
Unknown
Elevation
Unknown
Doppler factor
Unknown
Orbital elements
Apogee altitude
404.988 km
Perigee altitude
400.825 km
Semi-major axis
6,781.044 km
Eccentricity
0.00031
Inclination
97.2794°
RAAN
140.6916°
Arg. of periapsis
315.5433°
True anomaly
44.58209°
Mean anomaly
44.5574°
Eccentric anomaly
44.56974°
Mean motion
3.88686 °/min
Orbital period
92.62 mins
BSTAR
0.00027692
Loading maneuver chart data...
Computing Atmospheric mass density...
Loading historical data...
Loading historical data...
Loading historical data...
Loading historical data...
Loading historical data...
Loading historical data...
Loading historical data...

Documentation

Showing up to 5 results
|